• Join FlightAware (Why Join?)
  • Login
  • US Flag GB Flag 
09:27 EST


 

Airport Tracker/Info


-or-


 

Live Flight TrackerFlight Track Log ✈ RPA3392 ✈ 05-May-2013 ✈ KDCA - KALB

Flight Track Log - Related Links

Times and Time Zones

All times are in EDT time to prevent confusion due to time zone crossing. See the RPA3392 flight status page for this flight to view local times or setup timezone preferences in your user account.

Time Position Orientation Groundspeed Altitude Reporting Facility
EDT Latitude Longitude Course Direction KTS MPH feet Rate Location/Type
22:28 38.8667 -77.0500 83° East 163 188 800  Level Potomac TRACON
22:30 38.9658 -77.1586 320° Northwest 215 247 4,700 2,164 Climbing Washington Center
22:31 39.0406 -77.1844 345° North 259 298 7,400 2,622 Climbing Washington Center
22:32 39.0975 -77.1322 35° Northeast 211 243 9,900 2,164 Climbing Washington Center
22:33 39.0736 -77.0328 107° East 191 220 11,800 2,000 Climbing Washington Center
22:34 39.1519 -76.1975 83° East  Level FlightAware Approximate
22:34 39.0603 -76.9228 99° East 244 281 13,900  Level Washington Center
22:35 39.0739 -76.8081 81° East 284 327 15,800 1,537 Climbing Washington Center
22:36 39.0919 -76.6800 80° East 327 376 17,000 1,282 Climbing Washington Center
22:37 39.1075 -76.5544 81° East 352 405 18,300 1,350 Climbing Washington Center
22:38 39.1253 -76.4183 80° East 363 418 19,700 1,550 Climbing Washington Center
22:39 39.1406 -76.2847 82° East 375 432 21,400 1,678 Climbing Washington Center
22:40 39.1622 -76.1644 77° East 375 432 23,000 793 Climbing Washington Center
22:41 39.1753 -76.0281 83° East 375 432 23,000 100 Level Washington Center
22:42 39.1964 -75.8942 78° East 380 437 23,200 650 Climbing Washington Center
22:43 39.2633 -75.7900 50° Northeast 370 426 24,300 1,240 Climbing Washington Center
22:44 39.3447 -75.6856 45° Northeast 381 438 25,700 1,279 Climbing Washington Center
22:45 39.4239 -75.5808 46° Northeast 394 453 26,900 1,091 Climbing Washington Center
22:46 39.5092 -75.4733 44° Northeast 405 466 27,900 1,068 Climbing Washington Center
22:47 39.5883 -75.3681 46° Northeast 405 466 29,000 382 Climbing Washington Center
22:49 39.7511 -75.1450 46° Northeast 420 483 29,000  Level New York Center
22:50 39.8303 -75.0283 49° Northeast 426 490 29,000  Level New York Center
22:51 39.9114 -74.9169 46° Northeast 426 490 29,000  Level New York Center
22:52 39.9906 -74.8025 48° Northeast 431 496 29,000  Level New York Center
22:53 40.0711 -74.6958 45° Northeast 420 483 29,000  Level New York Center
22:54 40.1736 -74.6283 27° Northeast 396 456 29,000  Level New York Center
22:55 40.2683 -74.5956 15° North 387 445 29,000  Level New York Center
22:56 40.3778 -74.5608 14° North 387 445 29,000  Level New York Center
22:57 40.4872 -74.5258 14° North 392 451 29,000  Level New York Center
22:58 40.5989 -74.4908 13° North 403 464 29,000  Level New York Center
22:59 40.7103 -74.4558 13° North 403 464 29,000  Level New York Center
23:01 40.9164 -74.3931 13° North 396 456 29,000  Level Boston Center
23:02 41.0167 -74.3658 12° North 396 456 29,000  Level Boston Center
23:03 41.1278 -74.3306 13° North 402 463 29,000 -298 Level Boston Center
23:04 41.2369 -74.2950 14° North 402 463 28,400 -1,350 Descending Boston Center
23:05 41.3519 -74.2569 14° North 397 457 26,300 -1,261 Descending Boston Center
23:06 41.4589 -74.2211 14° North 390 449 25,900 -750 Descending Boston Center
23:07 41.5572 -74.1906 13° North 397 457 24,800 -1,500 Descending Boston Center
23:08 41.6619 -74.1603 12° North 397 457 22,900 -1,950 Descending Boston Center
23:09 41.7647 -74.1267 14° North 390 449 20,900 -2,000 Descending Boston Center
23:10 41.8631 -74.0931 14° North 375 432 18,900 -2,000 Descending Boston Center
23:11 41.9700 -74.0597 13° North 359 413 16,900 -2,000 Descending Boston Center
23:12 42.0578 -74.0283 15° North 359 413 14,900 -2,211 Descending Boston Center
23:13 42.1292 -74.0078 12° North 360 414 13,400 -2,300 Descending Boston Center
23:13 42.1625 -73.9975 13° North 354 407 12,600 -1,600 Descending Boston Center
23:14 42.2208 -73.9933 North 329 379 11,800 -1,000 Descending Boston Center
23:14 42.2461 -73.9883 North 343 395 11,600 -1,475 Descending Boston Center
23:15 42.3025 -73.9811 North 285 328 10,300 -2,100 Descending Boston Center
23:15 42.3317 -73.9736 11° North 302 348 9,500 -2,000 Descending Boston Center
23:16 42.3817 -73.9692 North 283 326 8,300 -1,900 Descending Boston Center
23:16 42.4047 -73.9669 North 286 329 7,600 -1,970 Descending Boston Center
23:17 42.4631 -73.9656 North 280 322 6,100 -2,000 Descending Boston Center
23:17 42.4881 -73.9606 North 276 318 5,600 -1,672 Descending Boston Center
23:18 42.5403 -73.9589 North 267 307 4,400 -1,475 Descending Boston Center
23:18 42.5550 -73.9536 15° North 276 318 4,100 -300 Descending Boston Center
23:19 42.6217 -73.9497 North 270 311 4,100 -102 Level Boston Center
23:19 42.6322 -73.9469 11° North 276 318 4,000 -492 Descending Boston Center
23:20 42.6864 -73.9456 North 224 258 3,600 -500 Descending Boston Center
23:20 42.6947 -73.9431 12° North 255 293 3,500 -500 Descending Boston Center
23:21 42.7450 -73.9272 13° North 214 246 3,100 -500 Descending Boston Center
23:21 42.7556 -73.9247 10° North 233 268 3,000 -98 Descending Boston Center
23:22 42.8036 -73.9117 11° North 199 229 3,000 -224 Level Boston Center
23:23 42.8253 -73.8500 64° Northeast 168 193 2,600 -744 Descending Boston Center
23:24 42.8172 -73.8072 104° East 146 168 1,500 -843 Descending Boston Center
23:25 42.7839 -73.8064 179° South 109 125 900 -590 Descending Boston Center